AirNav   BOSE ProFlight Aviation Headset
 
 390 users online  

CA84 Torrey Pines Gliderport
San Diego, California, USA

GOING TO SAN DIEGO?


FAA INFORMATION EFFECTIVE 21 JUNE 2018

Location

FAA Identifier: CA84
Lat/Long: 32-53-23.0000N / 117-14-49.0000W
32-53.383333N / 117-14.816667W
32.8897222 / -117.2469444
(estimated)
Elevation: 372 ft. / 113 m (estimated)
Variation: 13E (1985)
From city: 11 miles NW of SAN DIEGO, CA
Time zone: UTC -7 (UTC -8 during Standard Time)
Zip code: 92037

Gliderport Operations

Gliderport use: Private use. Permission required prior to landing
Activation date: 11/1961
Control tower: no
ARTCC: LOS ANGELES CENTER
FSS: SAN DIEGO FLIGHT SERVICE STATION
Attendance: UNATNDD
Wind indicator: no
Segmented circle: no

Gliderport Communications

WX ASOS at MYF (7 nm SE): PHONE 858-576-4337
WX ASOS at SAN (10 nm S): PHONE 619-296-8934
WX AWOS-3P at SEE (14 nm E): 125.45 (619-449-1228)
WX ASOS at CRQ (14 nm N): PHONE 760-930-0864
WX ASOS at RNM (19 nm NE): 132.025 (760-789-0736)

Nearby radio navigation aids

VOR radial/distance  VOR name  Freq  Var
MZBr335/6.5MISSION BAY VORTAC117.8015E
PGYr307/21.5POGGI VORTAC109.8014E
OCNr143/22.7OCEANSIDE VORTAC115.3015E
TIJr311/25.7TIJUANA VOR/DME116.5014E
JLIr231/36.5JULIAN VORTAC114.0015E

Gliderport Services

Airframe service: NONE
Powerplant service: NONE

Runway Information

Runway 9/27

Dimensions: 1500 x 30 ft. / 457 x 9 m
Surface: asphalt
RUNWAY 9  RUNWAY 27
Traffic pattern: leftleft
Obstructions: nonetrees, 100 ft. from runway

Gliderport Ownership and Management from official FAA records

Ownership: Publicly-owned
Owner: CITY OF SAN DIEGO
Manager: JIM FROST
4740 HARBINSON AVE
LA MESA, CA 91941
Phone 619-461-9614
WORK PHONE 619-535-9505 EXT 1585

Additional Remarks

GLIDER PORT IS LEASED FM CITY TO THE ASSOCD GLIDER CLUB OF SOUTHERN CALIF FOR STUDENT TRAINING & RIDGE SOARING.
ALL ACFT ARE TRAILERED GLIDERS.
ROLLING RWY .6 PERCENT GRADIENT.
EXTENSIVE HANG GLIDER OPERATIONS ON WEEKENDS AND WEEKDAYS.

Instrument Procedures

There are no published instrument procedures at CA84.

Some nearby airports with instrument procedures:

KNKX - Miramar MCAS (Joe Foss Field) Airport (5 nm E)
KMYF - Montgomery-Gibbs Executive Airport (7 nm SE)
KSAN - San Diego International Airport (10 nm S)
KNZY - North Island Naval Air Station (Halsey Field) (12 nm S)
KSEE - Gillespie Field Airport (14 nm E)
KCRQ - Mc Clellan-Palomar Airport (14 nm N)
KRNM - Ramona Airport (19 nm NE)
 
Loc | Ops | Rwys | IFR | FBO | Links
Com | Nav | Svcs | Stats | Notes


 
Area around CA84 (Torrey Pines Gliderport)
 
Road maps at: MapQuest Bing Google
 
Aerial photo
WARNING: Photo may not be current or correct
Aerial photo of CA84 (Torrey Pines Gliderport)
Photo by Doug Fronius
Photo taken 13-Mar-2004
from a 1942 Schweizer TG-2 sailplane.

Do you have a better or more recent aerial photo of Torrey Pines Gliderport that you would like to share? If so, please send us your photo.

 
Sectional chart

 
Airport distance calculator
Flying to Torrey Pines Gliderport? Find the distance to fly.

From to CA84

Sunrise and sunset
Times for 18-Jul-2018
 Local
(UTC-7)
 Zulu
(UTC)
Morning civil twilight05:2712:27
Sunrise05:5412:54
Sunset19:5602:56
Evening civil twilight20:2403:24

Current date and time
Zulu (UTC)  18-Jul-2018 09:04:50
Local (UTC-7)  18-Jul-2018 02:04:50
 
METAR
KNKX 
6nm E 
180806Z 27003KT 10SM BKN013 21/16 A2998 RMK AO2 T02110161
KMYF 
7nm SE 
180853Z AUTO 20005KT 10SM OVC010 19/17 A3000 RMK AO2 SLP153 T01940167 53001
KSAN 
10nm S 
180851Z 17006KT 10SM OVC012 21/17 A3000 RMK AO2 SLP159 T02060167 55004
KNZY 
11nm S 
180852Z 20005KT 10SM OVC011 19/17 A2998 RMK AO2 SLP152 T01940167 55004
KCRQ 
15nm N 
180853Z AUTO 18003KT 10SM BKN013 19/18 A2998 RMK AO2 SLP148 T01890178 55001
KSEE 
15nm E 
180855Z AUTO 23005KT 10SM SCT014 20/17 A2998 RMK AO2
KRNM 
19nm NE 
180853Z AUTO 28004KT 10SM CLR 18/16 A3000 RMK AO2 SLP141 T01830161 55004
TAF
KNKX 
6nm E 
1803/1903 VRB05KT 9999 OVC013 QNH2993INS BECMG 1816/1818 28008KT 9999 SCT012 QNH2995INS T22/1812Z T29/1822Z
KSAN 
10nm S 
180520Z 1806/1912 VRB04KT P6SM SCT015 FM180700 VRB04KT P6SM BKN015 FM181600 VRB04KT P6SM SCT015 SCT200 FM181900 28010KT P6SM SCT200 FM190100 VRB04KT P6SM SCT200 FM190800 VRB04KT P6SM BKN012
KNZY 
11nm S 
1807/1907 VRB06KT 9999 BKN013 BKN150 QNH2990INS BECMG 1816/1818 26009KT 9999 SCT015 SCT060 BKN200 QNH2987INS TEMPO 1823/1905 16015G25KT 9999 VCTS BKN050CB OVC180 FM190500 VRB06KT 9999 BKN015 QNH2992INS 18/1812Z T25/1821Z FS30058
KCRQ 
15nm N 
180520Z 1806/1906 VRB04KT P6SM OVC010 FM181700 VRB04KT P6SM SCT012 SCT200 FM182000 26008KT P6SM SCT200 FM190000 VRB04KT P6SM SCT200
NOTAMs
Click for the latest NOTAMs
NOTAMs are issued by the DoD/FAA and will open in a separate window not controlled by AirNav.

 

 
 

Would you like to see your business listed on this page?

 If your business provides an interesting product or service to pilots, flight crews, aircraft, or users of the Torrey Pines Gliderport, you should consider listing it here.  To start the listing process, click on the button below
 
Add a business
 

Other Pages about Torrey Pines Gliderport

www.agcsc.org/torrey_pines_info.html
 
Update a link
 
Copyright © AirNav, LLC. All rights reserved. Privacy Policy  Contact